Tracking 23581 objects as of 27-Jul-2021
HD Live streaming from Space Station
objects crossing your sky now

FEES

Track FEES now!
10-day predictions
FEES is classified as:


NORAD ID: 48082
Int'l Code: 2021-022AL
Perigee: 542.0 km
Apogee: 564.6 km
Inclination: 97.6 °
Period: 95.6 minutes
Semi major axis: 6924 km
RCS: Unknown
Launch date: March 22, 2021
Source: Italy (IT)
Launch site: TYURATAM MISSILE AND SPACE COMPLEX (TTMTR)

Uplink (MHz):
Downlink (MHz): 437.200
Beacon (MHz):
Mode: 9600bps FSK/Lora
Call sign:
Status: Active

aabbcc
Your satellite tracking list
Your tracking list is empty




NASA's NSSDC Master Catalog

Two Line Element Set (TLE):
1 48082U 21022AL  21207.97561649  .00001345  00000-0  94405-4 0  9997
2 48082  97.5554 109.5096 0016328 160.9659 199.2182 15.06732733 17530
Source of the keplerian elements: AFSPC